sat.trackr.live / text

‹ back to catalog

TOMORROW-S1

NORAD 60479 · 2024-149M

PAYLOAD ACTIVE UNKNOWN

§ Identity

Operator
Country
US
Launch date
2024-08-16
Launch site
AFWTR
Launch vehicle
Mass (kg)
RCS (m²)

External: N2YO · Heavens-Above · Gunter

§ Orbital elements

Epoch: 2026-05-25T03:40:34.852224Z

Period
93.97 min
Inclination
97.3749°
Eccentricity
0.0001972
Mean motion
15.32344268 rev/d
Perigee alt
467.5 km
Apogee alt
470.2 km
Semi-major
6,847.0 km
B*
2.1869e-4
RAAN
225.7043°
Arg perigee
11.6559°
Mean anomaly
348.4728°
Rev number
9,856

§ Raw data

TOMORROW-S11 60479U 24149M   26145.15318116  .00006752  00000+0  21869-3 0  99982 60479  97.3749 225.7043 0001972  11.6559 348.4728 15.32344268 98568

JSON: /api/v1/satellites/60479 · /tle

For live sub-satellite position, see the globe view (requires WebGL).

§ Visibility from observer

Set your observer location to see the next 7 days of passes ≥ 10°. The values pass through the URL so the page stays shareable.

No JS? Fill the form by hand. The geolocation button needs JavaScript.

§ Radio — SatNOGS DB

ModeDescriptionDownlinkUplink
OQPSK Mode X - OQPSK 8.030 GHz

1 transmitter · refreshed weekly from db.satnogs.org